Paris / Charles De Gaulle, France

9:18 PM CEST on April 25, 2017 (GMT +0200)
Charles de Gaulle

Weather History for LFPG - December, 2012

Change the Weather History Date:

Monday, December 24, 2012

  Actual Average Record
Temperature  
Mean Temperature 50 °F -  
Max Temperature 55 °F 42 °F 57 °F (2002)
Min Temperature 46 °F 34 °F 24 °F (2001)
Degree Days  
Heating Degree Days 14    
Moisture  
Dew Point 45 °F    
Average Humidity 79    
Maximum Humidity 93    
Minimum Humidity 63    
Precipitation  
Precipitation 0.00 in - - ()
Sea Level Pressure  
Sea Level Pressure 29.73 in    
Wind  
Wind Speed 11 mph ()    
Max Wind Speed 21 mph    
Max Gust Speed 31 mph    
Visibility 6.2 miles    
Events      
Averages and records for this station are not official NWS values.
T = Trace of Precipitation, MM = Missing Value Source: Averaged Metar Reports

Daily Weather History Graph

Daily Weather History Graph

Search for Another Location

Airport or City:

Trip Planner

Search our weather history database for the weather conditions in past years. The results will help you decide how hot, cold, wet, or windy it might be!

Date:

Astronomy

Dec. 24, 2012 Rise Set
Actual Time 8:42 AM CET 4:56 PM CET
Civil Twilight 8:05 AM CET 5:34 PM CET
Nautical Twilight 7:24 AM CET 6:14 PM CET
Astronomical Twilight 6:46 AM CET 6:53 PM CET
Moon 2:21 PM CET (12/24) 4:58 AM CET (12/24)
Length of Visible Light 9h 28m
Length of Day
8h 13m
Waxing Gibbous, 86% of the Moon is Illuminated
Dec 24
Waxing Gibbous
Dec 28
Full
Jan 5
Last Quarter
Jan 11
New
Jan 19
First Quarter

Hourly Weather History & Observations

Time (CET) Temp. Windchill Dew Point Humidity Pressure Visibility Wind Dir Wind Speed Gust Speed Precip Events Conditions
12:00 AM 53.6 °F - 48.2 °F 82% 29.86 in 6.2 mi SSW 15.0 mph - N/A   Scattered Clouds
12:30 AM 53.6 °F - 48.2 °F 82% 29.86 in 6.2 mi SSW 17.3 mph - N/A   Mostly Cloudy
1:00 AM 53.6 °F - 48.2 °F 82% 29.86 in 6.2 mi SW 10.4 mph - N/A   Scattered Clouds
1:30 AM 53.6 °F - 48.2 °F 82% 29.86 in 6.2 mi SSW 8.1 mph - N/A   Scattered Clouds
2:00 AM 51.8 °F - 48.2 °F 88% 29.86 in 6.2 mi South 9.2 mph - N/A   Scattered Clouds
2:30 AM 51.8 °F - 46.4 °F 82% 29.86 in 6.2 mi SSW 9.2 mph - N/A   Mostly Cloudy
3:00 AM 51.8 °F - 46.4 °F 82% 29.86 in 6.2 mi SW 8.1 mph - N/A   Overcast
3:30 AM 51.8 °F - 46.4 °F 82% 29.86 in 6.2 mi SSW 8.1 mph - N/A   Overcast
4:00 AM 51.8 °F - 48.2 °F 88% 29.86 in 6.2 mi SW 5.8 mph - N/A   Overcast
4:30 AM 51.8 °F - 48.2 °F 88% 29.83 in 6.2 mi SSW 9.2 mph - N/A   Overcast
5:00 AM 50.0 °F - 46.4 °F 87% 29.83 in 6.2 mi South 4.6 mph - N/A   Overcast
5:30 AM 50.0 °F - 46.4 °F 87% 29.83 in - South 5.8 mph - N/A   Clear
6:00 AM 50.0 °F - 46.4 °F 87% 29.83 in - South 8.1 mph - N/A   Clear
6:30 AM 50.0 °F - 46.4 °F 87% 29.80 in - South 9.2 mph - N/A   Clear
7:00 AM 48.2 °F - 46.4 °F 93% 29.80 in 6.2 mi South 9.2 mph - N/A   Mostly Cloudy
7:30 AM 48.2 °F - 46.4 °F 93% 29.80 in 6.2 mi South 10.4 mph - N/A   Mostly Cloudy
8:00 AM 48.2 °F - 46.4 °F 93% 29.77 in 6.2 mi South 9.2 mph - N/A   Mostly Cloudy
8:30 AM 48.2 °F - 44.6 °F 87% 29.77 in 6.2 mi South 9.2 mph - N/A   Mostly Cloudy
9:00 AM 46.4 °F 42.4 °F 44.6 °F 93% 29.77 in - SSE 8.1 mph - N/A   Clear
9:30 AM 48.2 °F - 46.4 °F 93% 29.77 in - SSE 8.1 mph - N/A   Clear
10:00 AM 48.2 °F - 46.4 °F 93% 29.74 in - SSE 9.2 mph - N/A   Clear
10:30 AM 48.2 °F - 46.4 °F 93% 29.74 in - SSE 12.7 mph - N/A   Clear
11:00 AM 50.0 °F - 46.4 °F 87% 29.74 in - SSE 11.5 mph - N/A   Clear
11:30 AM 50.0 °F - 44.6 °F 82% 29.71 in - South 11.5 mph - N/A   Clear
12:00 PM 51.8 °F - 42.8 °F 71% 29.71 in - Variable 11.5 mph 26.5 mph N/A   Clear
12:30 PM 51.8 °F - 42.8 °F 71% 29.68 in - SSW 15.0 mph 31.1 mph N/A   Clear
1:00 PM 53.6 °F - 42.8 °F 67% 29.68 in - SSW 15.0 mph - N/A   Clear
1:30 PM 53.6 °F - 42.8 °F 67% 29.65 in - SSW 16.1 mph - N/A   Clear
2:00 PM 55.4 °F - 42.8 °F 63% 29.65 in - SSW 17.3 mph - N/A   Clear
2:30 PM 55.4 °F - 44.6 °F 67% 29.65 in - SSW 20.7 mph - N/A   Clear
3:00 PM 53.6 °F - 44.6 °F 72% 29.62 in - SSW 18.4 mph - N/A   Clear
3:30 PM 53.6 °F - 44.6 °F 72% 29.62 in - SSW 15.0 mph - N/A   Clear
4:00 PM 53.6 °F - 44.6 °F 72% 29.62 in - South 13.8 mph - N/A   Clear
4:30 PM 53.6 °F - 44.6 °F 72% 29.65 in - SSW 15.0 mph - N/A   Clear
5:00 PM 53.6 °F - 44.6 °F 72% 29.62 in - South 17.3 mph - N/A   Clear
5:30 PM 53.6 °F - 44.6 °F 72% 29.62 in - SSW 18.4 mph - N/A   Clear
6:00 PM 53.6 °F - 44.6 °F 72% 29.65 in - SSW 16.1 mph - N/A   Clear
6:30 PM 53.6 °F - 44.6 °F 72% 29.65 in - SSW 17.3 mph - N/A   Clear
7:00 PM 53.6 °F - 44.6 °F 72% 29.65 in - SSW 17.3 mph - N/A   Clear
7:30 PM 53.6 °F - 44.6 °F 72% 29.65 in 6.2 mi SSW 16.1 mph - N/A   Mostly Cloudy
8:00 PM 53.6 °F - 44.6 °F 72% 29.65 in 6.2 mi SSW 16.1 mph - N/A   Mostly Cloudy
8:30 PM 53.6 °F - 44.6 °F 72% 29.65 in 6.2 mi SSW 18.4 mph - N/A   Mostly Cloudy
9:00 PM 53.6 °F - 44.6 °F 72% 29.65 in 6.2 mi SSW 18.4 mph - N/A   Mostly Cloudy
9:30 PM 53.6 °F - 44.6 °F 72% 29.62 in - SSW 16.1 mph - N/A   Clear
10:00 PM 53.6 °F - 44.6 °F 72% 29.62 in - SSW 13.8 mph - N/A   Clear
10:30 PM 53.6 °F - 44.6 °F 72% 29.62 in - SSW 13.8 mph - N/A   Clear
11:00 PM 53.6 °F - 42.8 °F 67% 29.62 in - South 11.5 mph - N/A   Clear
11:30 PM 51.8 °F - 42.8 °F 71% 29.59 in - South 11.5 mph - N/A   Clear